Погода в Амгуни

Россия / Хабаровский край     51°24′53″N   135°04′59″E
темп.,
°C
ветер,
м/с
пор.,
м/с
влажн.,
%
обл.,
%
осадки,
мм/ч
давл.,
гПа
погр.,
м
13 апреля, вт
вт1301:00−9св2495100 3.8 1013317
04:00−10св2696100 5.9 1011471
07:00−10св2596100 1.4 1010471
10:00−9св2590100 2.6 1009691
13:00−8св3588100 0.9 1006940
16:00−8св3686100 1.7 10041003
19:00−9ссв2787100 0.4 1005893
22:00−12ссв1194100 0.6 100569
14 апреля, ср
ср1401:00−13ссз2295100 0.1 100434
04:00−13сз2294100 0.3 100347
07:00−12сз1292100 0.3 100287
10:00−8зсз0274100 0.4 10011039
13:00−6ююв1187100 0.4 1001790
16:00−6вюв1188100 2.2 1001639
19:00−8юв2297100 2.6 1003312
22:00−10юв1298100 4.3 1006185
15 апреля, чт
чт1501:00−13зсз2295100 0.2 100623
04:00−12зсз3391100 0.2 100645
07:00−13зсз339021 0.0 100856
10:00−5зюз377011 0.0 10081256
13:00−3з3666100 0.0 10091548
16:00−2з476827 0.1 10111569
19:00−4зюз11895 0.0 101313
22:00−8сз3286100 0.0 101730
16 апреля, пт
пт1601:00−9сз3286100 0.0 101721
04:00−10ссз328658 0.0 101716
07:00−7с2287100 0.0 101630
10:00−2вюв228290 0.0 1015415
13:00−2вюв2297100 0.5 1015483
16:00−1вюв2295100 0.8 1014546
19:00−2в1297100 0.1 1014278
22:00−5ссз2297100 0.2 101517
17 апреля, сб
сб1701:00−4с2297100 0.2 101350
04:00−5с1198100 0.6 101213
07:00−3св1198100 1.2 101187
10:00−1юв11100100 1.6 1010356
13:000ююв11100100 0.9 1009283
16:000юв22100100 1.6 100898
19:00−1юв11100100 0.5 100970
22:00−1юв0199100 0.6 1010159